Location: Little Cypress
(30.1590°N, 93.7750°W)
Time: 11:04:14
(UTC-05:00)

Daily predictions for brighter satellites

Satellite Brightness Start Highest point End
(mag) Time Altitude Azimuth Time Altitude Azimuth Time Altitude Azimuth
Chandra Rocket (1) 4.1 20:13:40 10° W 20:19:01 78° S 20:41:42 10° ESE
Cosmos 1603 3.7 20:28:55 10° SSW 20:34:30 76° ESE 20:40:06 10° NNE
APEX 4.2 20:35:39 10° N 20:40:18 59° ENE 20:46:20 10° SSE
USA 186 2.4 20:39:09 10° SE 20:41:37 28° ENE 20:43:56 10° NNE
Cosmos 2058 Rocket 3.1 20:38:04 10° N 20:42:23 63° E 20:46:41 10° SSE
deb Centaur AC-2 4.2 20:38:49 10° W 20:43:18 90° SW 20:48:35 10° E
ALOS 2.6 20:39:19 10° SSE 20:43:46 47° ENE 20:48:15 10° N
Lacrosse 4 Rocket 2.5 20:40:46 10° SSE 20:43:54 22° ESE 20:47:05 10° NE
Meteor 1-15 Rocket 4.5 20:43:06 10° N 20:48:36 53° E 20:54:09 10° SSE
Atlas Centaur 2 2.8 20:43:59 10° W 20:50:23 89° N 20:58:21 10° E
Cosmos 1606 Rocket 4.4 20:49:14 10° NNW 20:53:32 54° W 20:57:46 10° S
Cosmos 1943 3.6 20:48:35 10° S 20:53:50 41° ESE 20:59:08 10° NE
ISS 0.0 20:52:14 10° WNW 20:53:58 14° NW 20:55:42 10° N
Tsikada Rocket 4.3 20:48:43 10° SSE 20:54:50 49° E 21:00:55 10° NNE
H-2A R/B 3.4 20:53:24 11° ESE 20:56:35 24° ENE 21:00:05 10° NNE
Cosmos 2228 3.0 20:57:13 10° N 21:01:36 68° E 21:05:58 10° SSE
Cosmos 1626 Rocket 3.5 20:58:35 10° S 21:02:59 73° E 21:07:24 10° N
YAOGAN 11 4.2 20:59:18 10° SSE 21:03:32 56° ENE 21:07:45 10° N
H-2A R/B 2.8 21:03:50 10° SSE 21:07:46 86° ENE 21:11:45 10° N
Mugunghwa Rocket 4.3 21:02:07 10° SW 21:08:03 44° SSE 21:13:45 12° E
deb Chang Zheng 4 3.6 21:04:55 10° NNE 21:09:13 58° E 21:13:29 10° S
Abrixas rocket 3.5 21:06:21 10° WNW 21:09:29 34° SW 21:12:04 14° SSE
Cosmos 1464 Rocket 4.0 21:05:49 10° N 21:11:59 86° W 21:18:12 10° S
Cosmos 2285 Rocket 4.5 21:05:45 10° NNW 21:11:59 63° WSW 21:18:16 10° S
Centaur D AC-28 2.1 21:08:26 10° W 21:12:41 45° SSW 21:15:06 19° SE
Cosmos 1939 Rocket 4.0 21:12:46 18° ESE 21:14:57 28° ENE 21:18:31 10° NNE
Delta 168 3.2 21:12:52 10° WSW 21:15:43 32° S 21:17:16 22° SE
Cosmos 1461 3.1 21:13:16 10° NNW 21:17:24 64° WSW 21:20:36 15° SSE
ATLAS 3B R/B 2.9 21:10:07 10° SSW 21:17:46 75° ESE 21:25:23 10° NNE
Cosmos 1190 Rocket 4.2 21:13:53 10° S 21:18:58 50° ESE 21:24:06 10° NNE
Cosmos 1346 Rocket 4.0 21:19:42 21° ESE 21:20:24 22° E 21:23:28 10° NE
SPOT 5 4.0 21:21:02 19° ESE 21:22:39 23° ENE 21:26:04 10° NNE
Nimbus 7 Rocket 4.4 21:19:29 10° NNE 21:25:21 62° ESE 21:31:07 10° S
Cosmos 2034 Rocket 4.2 21:27:40 10° N 21:34:01 77° W 21:40:16 10° S
Cosmos 676 Rocket 4.4 21:32:59 18° SSE 21:36:32 42° E 21:41:31 10° NNE
Cosmos 1666 4.3 21:36:00 10° NNW 21:39:31 33° W 21:43:01 10° SSW
ERS-1 Rocket 3.0 21:37:16 17° S 21:41:10 79° WSW 21:46:12 10° NNW
Cosmos 2369 Rocket 2.8 21:37:03 10° N 21:42:21 40° ENE 21:44:34 28° ESE
Cosmos 1932 4.5 21:36:52 10° S 21:42:49 53° ESE 21:48:48 10° NE
YAOGAN 6 4.4 21:43:54 18° ENE 21:43:54 18° ENE 21:46:17 10° NNE
Cosmos 1758 Rocket 3.7 21:57:13 48° ESE 21:57:48 51° E 22:02:01 10° NNE
Envisat 2.9 21:57:18 36° SSE 21:59:26 81° ENE 22:04:31 10° N
CZ-2C R/B 3.3 22:01:10 14° WSW 22:01:24 14° W 22:02:43 10° WNW
GEOS 3 Rocket 3.6 21:59:26 38° SE 22:01:32 87° ENE 22:06:47 10° NNW
Cosmos 407 Rocket 3.6 21:57:28 10° SSW 22:02:44 74° WNW 22:07:58 10° NNE
USA 238 DEB 3.7 21:58:29 10° SSW 22:05:30 67° ESE 22:12:30 10° NE
USA 238 3.7 21:58:35 10° SSW 22:05:36 66° ESE 22:12:36 10° NE
SL-27 R/B 4.3 22:10:37 21° NE 22:10:37 21° NE 22:11:54 10° NNE
Cosmos 1825 Rocket 4.3 22:10:34 21° SSW 22:13:17 52° W 22:17:37 10° N
MetOp-A 4.1 22:12:57 49° SE 22:14:20 73° ENE 22:19:41 10° N
Cosmos 2263 4.3 22:12:29 10° NNW 22:18:02 60° ENE 22:19:04 51° ESE
COSMOS 2406 3.2 22:21:23 55° SE 22:22:00 59° ESE 22:27:37 10° NNE
Lacrosse 4 Rocket 4.0 22:19:28 10° WSW 22:22:30 20° WNW 22:25:34 10° N
Cosmos 1954 Rocket 4.0 22:21:57 36° SSW 22:24:13 84° WNW 22:29:32 10° NNE
Cosmos 1943 Rocket 2.8 22:26:28 10° N 22:31:42 40° ENE 22:31:53 40° ENE
H-2A R/B 4.2 22:30:32 16° SW 22:32:29 21° W 22:35:46 10° NW
SeaSat 1 2.4 22:32:37 67° E 22:32:48 68° ENE 22:37:42 10° NNW
deb Centaur AC-2 4.5 22:29:23 10° W 22:34:16 65° SSW 22:34:16 65° SSW
Atlas Centaur 2 2.8 22:32:58 10° W 22:40:18 82° S 22:42:50 49° ESE
Meteor 1-22 Rocket 4.5 22:37:37 10° NNW 22:43:19 68° W 22:44:34 53° SSW
Cosmos 1741 Rocket 4.2 22:49:48 62° NE 22:49:48 62° NE 22:54:18 10° NNE
Cosmos 1953 4.1 22:50:56 10° N 22:52:54 27° NNE 22:52:54 27° NNE
Terra 3.1 22:57:56 33° NE 22:57:56 33° NE 23:01:00 10° N
Geosat 4.3 22:51:57 10° NNE 22:55:56 57° NNE 22:55:56 57° NNE
Nadezhda 4 Rocket 3.9 22:58:24 73° E 22:58:24 73° E 23:04:41 10° N
ARGOS 3.2 22:59:31 75° W 22:59:31 75° W 23:04:53 10° NNW
ATLAS 5 CENTAUR R/B4.023:21:28ESE23:21:28ESE22:56:00WSW
Mugunghwa Rocket 4.2 22:57:10 10° WSW 23:02:08 53° SW 23:02:08 53° SW
Cosmos 1850 Rocket 4.2 23:04:58 66° NNW 23:04:58 66° NNW 23:09:41 10° N
Cosmos-2242 4.2 23:01:59 10° N 23:04:54 41° NNW 23:04:54 41° NNW
Cosmos 1140 Rocket 4.2 23:06:28 47° W 23:07:04 49° WNW 23:12:09 10° N
H-2A R/B 2.7 23:14:20 47° N 23:14:20 47° N 23:18:01 10° N
NOSS 3-2 (A) 3.6 23:22:47 63° NNE 23:22:47 63° NNE 23:28:08 10° NNE
USA 234 3.5 23:24:29 56° ENE 23:24:55 57° NE 23:31:19 10° NNW
Cosmos 2369 Rocket 4.0 23:22:00 10° NW 23:25:59 20° W 23:26:23 20° WSW
Meteor 2-5 Rocket 4.4 23:42:55 51° N 23:42:55 51° N 23:47:11 10° N
CZ-4C R/B 3.2 23:48:42 42° N 23:48:42 42° N 23:52:47 10° NNE
